Terminal Aerodrome Forecast
Issued by NWS Sterling, VA

Current Version | Previous Version | Text Only | Print | Product List | Glossary Off
Versions: 1 2 3 4 5 6 7 8 9 10 11 12 13 14 15 16 17 18 19 20 21 22

000
FTUS41 KLWX 160500
TAFDCA
TAF
KDCA 160524Z 1606/1706 18005KT P6SM BKN090
     FM161000 24004KT P6SM BKN040
     FM161400 31007KT P6SM SCT060
     FM170200 01005KT P6SM FEW070=

USA.gov is the U.S. government's official web portal to all federal, state and local government web resources and services.